Greenville, AL

1:42 PM CDT on April 24, 2017 (GMT -0500)
Greenville Municipal

Weather History for KPRN - October, 2011

Change the Weather History Date:

Sunday, October 30, 2011

  Actual Average Record
Temperature  
Mean Temperature 50 °F -  
Max Temperature 63 °F 75 °F 90 °F (2016)
Min Temperature 37 °F 51 °F 31 °F (1952)
Degree Days  
Heating Degree Days 15    
Moisture  
Dew Point 32 °F    
Average Humidity 55    
Maximum Humidity 86    
Minimum Humidity 27    
Precipitation  
Precipitation 0.00 in - - ()
Sea Level Pressure  
Sea Level Pressure 30.20 in    
Wind  
Wind Speed 4 mph (ENE)    
Max Wind Speed 12 mph    
Max Gust Speed 21 mph    
Visibility 10 miles    
Events      
Averages and records for this station are not official NWS values.
T = Trace of Precipitation, MM = Missing Value Source: NWS Daily Summary

Daily Weather History Graph

Daily Weather History Graph

Search for Another Location

Airport or City:

Trip Planner

Search our weather history database for the weather conditions in past years. The results will help you decide how hot, cold, wet, or windy it might be!

Date:

Astronomy

Oct. 30, 2011 Rise Set
Actual Time 7:00 AM CDT 5:58 PM CDT
Civil Twilight 6:35 AM CDT 6:23 PM CDT
Nautical Twilight 6:07 AM CDT 6:52 PM CDT
Astronomical Twilight 5:38 AM CDT 7:21 PM CDT
Moon 11:09 AM CDT (10/30) 9:36 PM CDT (10/30)
Length of Visible Light 11h 47m
Length of Day
10h 57m
Waxing Crescent, 20% of the Moon is Illuminated
Oct 30
Waxing Crescent
Nov 2
First Quarter
Nov 10
Full
Nov 18
Last Quarter
Nov 25
New

Hourly Weather History & Observations

Time (CDT) Temp. Windchill Dew Point Humidity Pressure Visibility Wind Dir Wind Speed Gust Speed Precip Events Conditions
12:56 AM 46.0 °F 44.8 °F 32.0 °F 58% 30.16 in 10.0 mi NNE 3.5 mph - N/A   Clear
1:56 AM 44.1 °F - 32.0 °F 63% 30.17 in 10.0 mi Calm Calm - N/A   Clear
2:56 AM 43.0 °F 41.3 °F 32.0 °F 65% 30.17 in 10.0 mi NNE 3.5 mph - N/A   Clear
3:56 AM 37.0 °F 33.3 °F 30.9 °F 79% 30.17 in 10.0 mi NNE 4.6 mph - N/A   Clear
5:56 AM 39.9 °F 37.8 °F 32.0 °F 73% 30.19 in 10.0 mi NNE 3.5 mph - N/A   Clear
6:56 AM 39.0 °F - 32.0 °F 76% 30.22 in 10.0 mi Calm Calm - N/A   Clear
7:56 AM 42.1 °F 40.2 °F 33.1 °F 70% 30.23 in 10.0 mi ENE 3.5 mph - N/A   Clear
8:56 AM 48.0 °F - 35.1 °F 61% 30.25 in 10.0 mi East 10.4 mph - N/A   Clear
9:56 AM 55.0 °F - 30.9 °F 40% 30.25 in 10.0 mi ESE 11.5 mph 20.7 mph N/A   Clear
10:56 AM 57.9 °F - 28.9 °F 33% 30.25 in 10.0 mi East 11.5 mph - N/A   Clear
11:56 AM 61.0 °F - 28.9 °F 30% 30.23 in 10.0 mi ENE 8.1 mph - N/A   Clear
12:56 PM 63.0 °F - 30.0 °F 29% 30.22 in 10.0 mi East 9.2 mph - N/A   Clear
1:56 PM 63.0 °F - 28.9 °F 28% 30.20 in 10.0 mi ESE 6.9 mph - N/A   Clear
2:56 PM 62.1 °F - 28.0 °F 28% 30.18 in 10.0 mi ESE 3.5 mph - N/A   Clear
3:56 PM 63.0 °F - 28.0 °F 27% 30.18 in 10.0 mi East 6.9 mph - N/A   Clear
4:56 PM 61.0 °F - 30.0 °F 31% 30.17 in 10.0 mi East 4.6 mph - N/A   Clear
5:56 PM 59.0 °F - 32.0 °F 36% 30.17 in 10.0 mi Calm Calm - N/A   Clear
6:56 PM 51.1 °F - 37.9 °F 61% 30.19 in 10.0 mi Calm Calm - N/A   Clear
7:56 PM 46.9 °F - 37.9 °F 71% 30.20 in 10.0 mi North 3.5 mph - N/A   Clear
8:56 PM 46.0 °F - 37.9 °F 73% 30.21 in 10.0 mi Calm Calm - N/A   Clear
9:56 PM 44.1 °F - 37.0 °F 76% 30.21 in 10.0 mi Calm Calm - N/A   Clear
10:56 PM 41.0 °F - 36.0 °F 82% 30.21 in 10.0 mi Calm Calm - N/A   Clear
11:56 PM 39.0 °F - 35.1 °F 86% 30.20 in 10.0 mi Calm Calm - N/A   Clear